OCO 2 1 40059U 14035A 21018.80705386 .00000035 00000-0 17817-4 0 9996 2 40059 98.2147 322.3867 0001116 74.4222 285.7099 14.57116252348382 DELTA 2 R/B 1 40060U 14035B 21018.34065367 .00000007 00000-0 00000-0 0 9996 2 40060 98.1740 142.9120 3075856 42.3330 337.7615 6.11247263146150